W4RAH-1 Weather Reports


time (UTC)temp
C
wind
direction
speed
KPH
gust
KPH
rain 1hr
cm
rain 24hr
cm
rain mn
cm
humidity
%
barometer
mb
20260507162828 18 30 11.3 20.9 0.00 0.05 0.03 44 1011.9
20260507162334 18 19 4.8 17.7 0.00 0.05 0.03 45 1011.9
20260507161823 18 306 9.7 19.3 0.00 0.05 0.03 42 1012.1
20260507161330 18 325 4.8 12.9 0.00 0.05 0.03 44 1012.1
20260507160834 17 15 0.0 12.9 0.00 0.05 0.03 45 1012.2
20260507160340 17 344 4.8 17.7 0.00 0.05 0.03 45 1012.1
20260507155824 17 10 8.0 20.9 0.00 0.05 0.03 45 1012.3
20260507155331 17 47 11.3 22.5 0.00 0.05 0.03 44 1012.3
20260507154835 17 39 8.0 22.5 0.00 0.05 0.03 43 1012.3
20260507154321 16 331 11.3 17.7 0.00 0.05 0.03 47 1012.3
20260507153826 16 38 8.0 20.9 0.00 0.05 0.03 47 1012.4
20260507153332 16 34 12.9 20.9 0.00 0.05 0.03 46 1012.4
20260507152821 16 360 4.8 19.3 0.00 0.05 0.03 46 1012.5
20260507152327 16 360 6.4 19.3 0.00 0.05 0.03 49 1012.5
20260507151832 16 360 8.0 20.9 0.00 0.05 0.03 49 1012.6
20260507151338 15 315 3.2 20.9 0.00 0.05 0.03 50 1012.6
20260507150823 16 19 9.7 20.9 0.00 0.05 0.03 47 1012.7
20260507150331 16 342 8.0 20.9 0.00 0.05 0.03 49 1012.8
20260507145835 15 340 9.7 24.1 0.00 0.05 0.03 52 1012.9
20260507145322 15 45 12.9 22.5 0.00 0.05 0.03 50 1013.1
20260507144826 15 61 3.2 17.7 0.00 0.13 0.03 54 1013.1
20260507144332 15 18 4.8 25.7 0.00 0.13 0.03 52 1013.2
20260507143821 14 328 9.7 25.7 0.00 0.13 0.03 51 1013.2
20260507143327 14 24 0.0 12.9 0.00 0.13 0.03 51 1013.3
20260507142832 14 322 0.0 12.9 0.00 0.13 0.03 55 1013.3
20260507142306 13 46 4.8 12.9 0.00 0.13 0.03 50 1013.5
20260507141317 13 355 0.0 16.1 0.00 0.13 0.03 52 1013.6
20260507140824 13 336 3.2 17.7 0.00 0.13 0.03 51 1013.7
20260507140331 13 26 0.0 17.7 0.00 0.13 0.03 54 1013.8
20260507135758 13 355 8.0 17.7 0.00 0.13 0.03 54 1013.8
20260507134830 13 41 3.2 17.7 0.00 0.25 0.03 53 1013.8
20260507134323 13 57 9.7 17.7 0.00 0.25 0.03 55 1013.9
20260507133828 12 350 3.2 17.7 0.00 0.25 0.03 58 1014.0
20260507133337 12 22 9.7 17.7 0.00 0.25 0.03 56 1013.9
20260507132822 12 16 0.0 17.7 0.03 0.25 0.03 57 1014.0
20260507132330 12 11 6.4 17.7 0.03 0.25 0.03 59 1014.1
20260507131835 12 15 6.4 14.5 0.03 0.25 0.03 57 1014.0
20260507131324 12 46 0.0 14.5 0.03 0.25 0.03 59 1014.0
20260507130829 12 29 3.2 14.5 0.03 0.25 0.03 58 1014.0
20260507130336 12 355 4.8 14.5 0.03 0.25 0.03 58 1014.2
20260507125827 11 330 0.0 19.3 0.03 0.25 0.03 60 1014.1
20260507125334 11 336 4.8 19.3 0.03 0.25 0.03 59 1014.1
20260507124820 11 338 1.6 12.9 0.03 0.43 0.03 60 1014.1
20260507124328 11 340 0.0 16.1 0.03 0.43 0.03 60 1014.0
20260507123836 11 355 0.0 16.1 0.03 0.43 0.03 60 1014.0
20260507123323 11 360 4.8 12.9 0.03 0.43 0.03 60 1013.9
20260507122829 11 360 0.0 9.7 0.00 0.41 0.00 61 1013.8
20260507122337 11 15 0.0 17.7 0.00 0.41 0.00 60 1013.9
20260507121822 11 22 6.4 17.7 0.00 0.41 0.00 60 1013.8
20260507121330 11 360 0.0 12.9 0.00 0.41 0.00 60 1013.8
20260507120819 11 21 3.2 14.5 0.00 0.41 0.00 60 1013.7
20260507120328 11 33 3.2 17.7 0.00 0.41 0.00 59 1013.7
20260507115833 11 28 3.2 17.7 0.00 0.41 0.00 58 1013.6
20260507115321 11 355 1.6 16.1 0.00 0.41 0.00 59 1013.7
20260507114827 11 9 6.4 19.3 0.00 0.53 0.00 60 1013.7
20260507114335 11 348 3.2 17.7 0.00 0.53 0.00 61 1013.6
20260507113820 11 345 0.0 14.5 0.00 0.53 0.00 60 1013.5
20260507113328 11 31 1.6 14.5 0.00 0.53 0.00 60 1013.5
20260507112834 11 15 3.2 16.1 0.00 0.53 0.00 60 1013.5
20260507112326 11 15 4.8 16.1 0.00 0.53 0.00 61 1013.6
20260507111752 11 355 1.6 6.4 0.00 0.53 0.00 62 1013.6
20260507110825 11 19 0.0 1.6 0.00 0.53 0.00 63 1013.5
20260507110333 11 5 0.0 0.0 0.00 0.53 0.00 65 1013.5
20260507105759 11 34 0.0 0.0 0.00 0.53 0.00 63 1013.5
20260507104831 11 34 0.0 0.0 0.00 0.56 0.00 62 1013.5
20260507104320 11 38 0.0 9.7 0.00 0.56 0.00 63 1013.2
20260507103825 11 34 4.8 9.7 0.00 0.56 0.00 62 1013.1
20260507103337 11 25 0.0 12.9 0.00 0.56 0.00 62 1013.1
20260507102823 11 10 4.8 12.9 0.00 0.56 0.00 62 1012.9
20260507102330 11 34 0.0 3.2 0.00 0.56 0.00 62 1013.0
20260507101817 11 44 0.0 6.4 0.00 0.56 0.00 62 1012.9
20260507101325 11 28 0.0 6.4 0.00 0.56 0.00 62 1012.9
20260507100831 11 16 1.6 4.8 0.00 0.56 0.00 63 1012.9
20260507100318 11 344 0.0 8.0 0.00 0.56 0.00 64 1012.8
20260507095825 11 343 1.6 12.9 0.00 0.56 0.00 64 1012.8
20260507095332 11 355 0.0 12.9 0.00 0.56 0.00 65 1012.7
20260507094822 11 334 3.2 12.9 0.00 0.56 0.00 66 1012.5
20260507094330 11 64 1.6 8.0 0.00 0.56 0.00 66 1012.4
20260507093818 11 338 4.8 8.0 0.00 0.56 0.00 66 1012.5
20260507093302 11 46 6.4 24.1 0.00 0.56 0.00 67 1012.4
20260507092318 12 17 9.7 24.1 0.00 0.56 0.00 67 1012.4
20260507091805 12 340 0.0 17.7 0.00 0.56 0.00 74 1012.5
20260507090817 12 355 1.6 12.9 0.00 0.56 0.00 75 1012.4
20260507090326 12 355 0.0 6.4 0.00 0.56 0.00 77 1012.5
20260507085836 12 14 0.0 6.4 0.00 0.56 0.00 78 1012.5
20260507085323 12 23 0.0 9.7 0.00 0.56 0.00 78 1012.5
20260507084829 12 44 0.0 14.5 0.00 0.56 0.00 78 1012.4
20260507084337 12 5 6.4 9.7 0.00 0.56 0.00 78 1012.5
20260507083804 12 30 0.0 6.4 0.00 0.56 0.00 77 1012.4
20260507082836 12 9 0.0 3.2 0.00 0.56 0.00 78 1012.5
20260507082325 12 17 0.0 8.0 0.00 0.56 0.00 78 1012.3
20260507081755 12 9 0.0 9.7 0.00 0.56 0.00 77 1012.2
20260507080828 12 28 1.6 9.7 0.00 0.56 0.00 77 1012.0
20260507080336 12 5 0.0 6.4 0.00 0.56 0.00 77 1012.0
20260507075822 12 9 0.0 6.4 0.00 0.56 0.00 77 1011.9
20260507075329 12 31 0.0 6.4 0.00 0.56 0.00 77 1011.8
20260507074835 12 28 0.0 9.7 0.00 0.56 0.00 77 1011.8
20260507074322 12 9 0.0 17.7 0.00 0.56 0.00 77 1011.8
20260507073827 12 336 3.2 17.7 0.00 0.56 0.00 77 1011.8
20260507073336 12 30 6.4 16.1 0.00 0.56 0.00 77 1011.9
20260507072806 12 5 0.0 17.7 0.00 0.56 0.00 77 1011.7
20260507071818 12 33 6.4 17.7 0.00 0.56 0.00 77 1011.8
20260507071327 12 348 3.2 20.9 0.00 0.56 0.00 76 1011.8
20260507070833 12 35 4.8 22.5 0.00 0.56 0.00 76 1011.8
20260507070320 12 5 8.0 22.5 0.00 0.56 0.00 76 1011.8
20260507065827 12 42 0.0 14.5 0.00 0.56 0.00 76 1011.8
20260507065253 12 355 0.0 16.1 0.00 0.56 0.00 76 1012.0
20260507064251 12 5 0.0 16.1 0.00 0.56 0.00 76 1012.2
20260507063303 12 10 0.0 9.7 0.00 0.56 0.00 77 1012.2
20260507062338 12 25 0.0 16.1 0.00 0.56 0.00 77 1012.2
20260507061805 13 360 0.0 14.5 0.00 0.56 0.00 77 1012.3
20260507060816 13 15 8.0 14.5 0.00 0.56 0.00 77 1012.2
20260507060325 13 38 0.0 6.4 0.00 0.56 0.00 77 1012.3
20260507055830 13 17 1.6 14.5 0.00 0.56 0.00 76 1012.3
20260507055319 13 360 3.2 14.5 0.00 0.56 0.00 76 1012.4
20260507054809 13 23 0.0 0.0 0.00 0.56 0.00 76 1012.1
20260507053802 13 9 0.0 16.1 0.00 0.56 0.00 76 1011.9
20260507052835 13 340 3.2 17.7 0.00 0.56 0.00 76 1011.9
20260507052323 13 15 0.0 12.9 0.00 0.56 0.00 76 1011.9
20260507051829 13 334 3.2 12.9 0.00 0.56 0.00 76 1012.1
20260507051337 13 35 3.2 9.7 0.00 0.56 0.00 76 1012.3
20260507050822 13 49 0.0 17.7 0.00 0.56 0.00 76 1012.1
20260507050331 13 81 6.4 17.7 0.00 0.56 0.00 76 1012.1
20260507045820 13 317 4.8 24.1 0.00 0.56 0.00 76 1012.1
20260507045328 13 44 6.4 24.1 0.00 0.56 0.00 77 1012.2
20260507044833 13 355 8.0 17.7 0.00 0.56 0.00 79 1012.2
20260507044322 13 30 6.4 14.5 0.00 0.56 0.00 80 1012.2
20260507043808 13 101 4.8 20.9 0.00 0.56 0.00 81 1011.8
20260507042821 13 52 4.8 22.5 0.00 0.56 0.00 81 1012.1
20260507042329 13 74 11.3 22.5 0.00 0.56 0.00 81 1012.0
20260507041835 13 26 12.9 25.7 0.00 0.56 0.00 81 1012.2
20260507041327 13 16 16.1 25.7 0.00 0.56 0.00 82 1012.1
20260507040833 13 9 4.8 20.9 0.00 0.56 0.00 81 1011.9
20260507040320 13 34 1.6 17.7 0.00 0.56 0.00 81 1011.7
20260507035827 14 5 8.0 19.3 0.00 0.56 0.00 81 1011.7
20260507035334 14 52 9.7 19.3 0.00 0.56 0.00 81 1011.8
20260507034820 14 20 6.4 19.3 0.00 0.56 0.56 81 1011.8
20260507034328 14 26 1.6 20.9 0.00 0.56 0.56 81 1011.7
20260507033836 14 24 9.7 24.1 0.00 0.56 0.56 81 1011.8
20260507033323 14 355 14.5 24.1 0.00 0.56 0.56 81 1011.7
20260507032829 14 36 11.3 20.9 0.00 0.56 0.56 81 1011.5
20260507032320 14 59 9.7 20.9 0.00 0.56 0.56 81 1011.5
20260507031827 15 5 12.9 17.7 0.00 0.56 0.56 81 1011.5
20260507031334 15 349 0.0 14.5 0.00 0.56 0.56 81 1011.6
20260507030820 15 41 1.6 16.1 0.00 0.56 0.56 81 1011.7
20260507030328 15 298 0.0 20.9 0.00 0.56 0.56 80 1011.8
20260507025834 15 319 6.4 20.9 0.00 0.56 0.56 80 1011.6
20260507025321 15 325 4.8 19.3 0.00 0.56 0.56 80 1011.5
20260507024828 15 24 6.4 19.3 0.00 0.56 0.56 80 1011.3
20260507024335 15 5 1.6 19.3 0.00 0.56 0.56 81 1011.4
20260507023825 15 19 0.0 1.6 0.00 0.56 0.56 82 1011.2
20260507023333 15 27 0.0 9.7 0.00 0.56 0.56 82 1011.2
20260507022819 15 36 0.0 9.7 0.00 0.56 0.56 81 1011.4
20260507022326 15 35 1.6 6.4 0.00 0.56 0.56 81 1011.1
20260507021753 15 42 0.0 9.7 0.00 0.56 0.56 81 1011.2
20260507020825 15 360 4.8 9.7 0.00 0.56 0.56 81 1011.1
20260507020334 15 38 0.0 1.6 0.00 0.56 0.56 81 1011.0
20260507015818 15 360 0.0 1.6 0.00 0.56 0.56 81 1011.2
20260507015327 15 34 0.0 14.5 0.00 0.56 0.56 81 1011.1
20260507014757 15 325 0.0 17.7 0.00 0.56 0.56 82 1011.3
20260507013830 15 319 0.0 17.7 0.00 0.56 0.56 82 1011.1
20260507013336 15 360 0.0 22.5 0.03 0.56 0.56 82 1010.8
20260507012820 15 326 4.8 22.5 0.03 0.56 0.56 83 1010.6
20260507012329 15 28 8.0 20.9 0.03 0.56 0.56 83 1010.8
20260507011754 16 5 12.9 22.5 0.03 0.56 0.56 83 1010.8
20260507010828 16 318 9.7 24.1 0.03 0.56 0.56 83 1010.8
20260507010319 16 360 6.4 27.4 0.03 0.56 0.56 83 1010.9
20260507005826 16 355 12.9 27.4 0.03 0.56 0.56 83 1011.0
20260507005333 16 305 12.9 24.1 0.03 0.56 0.56 83 1011.0
20260507004819 17 347 9.7 25.7 0.03 0.56 0.56 84 1011.0
20260507004327 17 331 11.3 25.7 0.03 0.56 0.56 83 1011.0
20260507003754 17 355 6.4 19.3 0.00 0.53 0.53 83 1010.9
20260507002826 17 31 8.0 20.9 0.00 0.53 0.53 82 1010.9
20260507002335 17 348 12.9 24.1 0.00 0.53 0.53 82 1010.7
20260507001819 17 5 6.4 24.1 0.00 0.53 0.53 82 1010.8
20260507001332 17 322 9.7 24.1 0.00 0.53 0.53 82 1010.6
20260507000817 17 346 3.2 19.3 0.00 0.53 0.53 83 1010.5
20260507000325 18 360 0.0 16.1 0.00 0.53 0.53 84 1010.3
20260506235832 18 325 4.8 16.1 0.00 0.53 0.53 83 1010.3
20260506235258 18 340 0.0 14.5 0.00 0.53 0.53 84 1010.0
20260506234333 18 342 0.0 19.3 0.00 0.53 0.53 84 1009.9
20260506233818 18 332 3.2 19.3 0.00 0.53 0.53 84 1010.0
20260506233326 18 344 1.6 8.0 0.00 0.53 0.53 84 1009.8
20260506232831 18 45 0.0 17.7 0.00 0.53 0.53 84 1009.4
20260506232324 18 5 4.8 19.3 0.00 0.53 0.53 84 1009.3
20260506231810 19 338 1.6 19.3 0.00 0.53 0.53 84 1009.4
20260506230823 19 11 6.4 12.9 0.00 0.53 0.53 85 1009.4
20260506230331 19 360 0.0 20.9 0.00 0.53 0.53 85 1009.1
20260506225758 20 344 1.6 12.9 0.00 0.53 0.53 85 1009.3
20260506224830 20 316 0.0 6.4 0.00 0.53 0.53 85 1009.1
20260506224319 20 220 0.0 6.4 0.00 0.53 0.53 85 1009.0
20260506223828 20 215 3.2 4.8 0.00 0.53 0.53 85 1009.0
20260506223337 20 220 0.0 4.8 0.00 0.53 0.53 85 1009.0
20260506222802 20 267 0.0 6.4 0.00 0.53 0.53 85 1008.9
20260506221835 20 215 1.6 6.4 0.00 0.53 0.53 86 1008.9
20260506221323 20 266 1.6 6.4 0.00 0.53 0.53 87 1008.9
20260506220810 20 219 0.0 3.2 0.00 0.53 0.53 87 1008.7
20260506215822 19 227 0.0 3.2 0.00 0.53 0.53 89 1008.7
20260506215331 19 218 0.0 0.0 0.00 0.53 0.53 89 1008.6
20260506214819 19 244 0.0 0.0 0.00 0.53 0.53 89 1008.8
20260506214329 19 252 0.0 0.0 0.00 0.53 0.53 88 1008.9
20260506213833 19 230 0.0 0.0 0.00 0.53 0.53 89 1008.8
20260506213322 19 218 0.0 0.0 0.00 0.53 0.53 89 1008.8
20260506212827 19 219 0.0 0.0 0.00 0.53 0.53 89 1008.7
20260506212336 19 220 0.0 0.0 0.00 0.53 0.53 89 1008.7
20260506211820 18 219 0.0 0.0 0.00 0.53 0.53 89 1008.6
20260506211329 18 219 0.0 0.0 0.00 0.53 0.53 89 1008.6
20260506210835 18 219 0.0 0.0 0.00 0.53 0.53 89 1008.5
20260506210306 18 219 0.0 0.0 0.00 0.53 0.53 88 1008.3
20260506205320 18 219 0.0 1.6 0.00 0.53 0.53 88 1008.3
20260506204826 18 219 0.0 1.6 0.00 0.53 0.53 88 1008.4
20260506204334 18 221 0.0 0.0 0.00 0.53 0.53 87 1008.3
20260506203801 18 221 0.0 0.0 0.00 0.53 0.53 87 1008.3
20260506202833 18 221 0.0 0.0 0.00 0.53 0.53 87 1008.2
20260506202321 18 221 0.0 0.0 0.00 0.53 0.53 86 1008.2
20260506201826 18 219 0.0 0.0 0.00 0.53 0.53 86 1008.4
20260506201319 19 201 0.0 0.0 0.00 0.53 0.53 85 1008.4
20260506200805 19 248 0.0 0.0 0.00 0.53 0.53 84 1008.4
20260506195817 19 225 0.0 8.0 0.00 0.53 0.53 83 1008.3
20260506195325 19 221 0.0 8.0 0.00 0.53 0.53 83 1008.4
20260506194831 19 215 1.6 8.0 0.00 0.53 0.53 83 1008.3
20260506194319 20 217 1.6 3.2 0.00 0.53 0.53 83 1008.4
20260506193825 20 217 0.0 3.2 0.00 0.53 0.53 82 1008.3
20260506193332 20 217 0.0 4.8 0.00 0.53 0.53 82 1008.4
20260506192822 20 216 1.6 11.3 0.00 0.53 0.53 82 1008.4
20260506192331 20 213 0.0 12.9 0.00 0.53 0.53 81 1008.4
20260506191836 20 223 4.8 12.9 0.00 0.53 0.53 82 1008.5
20260506191325 20 220 0.0 16.1 0.00 0.53 0.53 82 1008.5
20260506190830 20 220 0.0 16.1 0.00 0.53 0.53 81 1008.4
20260506190318 20 232 1.6 6.4 0.00 0.53 0.53 82 1008.5
20260506185823 20 232 1.6 8.0 0.00 0.53 0.53 82 1008.5
20260506185331 20 219 3.2 9.7 0.00 0.53 0.53 82 1008.4
20260506184836 20 209 3.2 9.7 0.00 0.53 0.53 83 1008.5
20260506184324 20 229 0.0 14.5 0.00 0.53 0.53 84 1008.4
20260506183835 20 213 6.4 14.5 0.00 0.53 0.53 84 1008.5
20260506183300 19 202 1.6 11.3 0.00 0.53 0.53 87 1008.7
20260506182335 18 257 4.8 11.3 0.00 0.53 0.53 87 1008.8
20260506181822 18 213 4.8 14.5 0.00 0.53 0.53 86 1008.7
20260506181307 18 229 4.8 14.5 0.00 0.53 0.53 86 1008.8
20260506180323 18 217 4.8 19.3 0.00 0.53 0.53 86 1008.8
20260506175829 18 204 6.4 22.5 0.00 0.53 0.53 86 1008.8
20260506175320 18 232 8.0 22.5 0.00 0.53 0.53 86 1008.9
20260506174828 18 215 0.0 25.7 0.00 0.53 0.53 86 1008.9
20260506174252 18 242 6.4 16.1 0.00 0.53 0.53 86 1008.9
20260506173328 18 227 8.0 17.7 0.00 0.53 0.53 86 1009.0
20260506172834 18 226 4.8 17.7 0.00 0.53 0.53 85 1009.0
20260506172321 18 232 6.4 25.7 0.00 0.53 0.53 86 1009.0
20260506171809 18 211 12.9 24.1 0.00 0.53 0.53 86 1008.9
20260506170806 18 225 12.9 24.1 0.00 0.53 0.53 87 1008.9
20260506170332 18 225 12.9 24.1 0.00 0.53 0.53 87 1008.9
20260506165818 18 200 11.3 33.8 0.00 0.53 0.53 86 1008.9
20260506165326 18 171 14.5 30.6 0.00 0.53 0.53 88 1008.9
20260506164753 18 198 1.6 35.4 0.00 0.53 0.53 89 1009.1
20260506163825 18 211 16.1 35.4 0.00 0.53 0.53 89 1008.9
20260506163334 18 193 8.0 29.0 0.00 0.53 0.53 90 1009.0